This is the latest recevied weather packets stored in our database for station/object CE3MXM-12. If no packets are shown the sender has not sent any weather packets the latest 1 day(s).
| Time | Temp. | Humidity | Pressure | Rain* | Wind** | Luminosity | Snow |
|---|---|---|---|---|---|---|---|
| 1778098239 | 11.11° C | 92% | 1018.7 hPa | - | - | - | - |
| 1778097639 | 11.11° C | 92% | 1018.7 hPa | - | - | - | - |
| 1778096138 | 11.11° C | 92% | 1018.4 hPa | - | - | - | - |
| 1778095838 | 11.11° C | 92% | 1018.4 hPa | - | - | - | - |
| 1778095538 | 11.11° C | 92% | 1018.3 hPa | - | - | - | - |
| 1778095238 | 11.11° C | 92% | 1018.3 hPa | - | - | - | - |
| 1778094938 | 11.11° C | 92% | 1018.4 hPa | - | - | - | - |
| 1778092537 | 11.67° C | 93% | 1017.7 hPa | - | - | - | - |
| 1778092237 | 11.67° C | 93% | 1017.3 hPa | - | - | - | - |
| 1778091637 | 12.22° C | 93% | 1017.2 hPa | - | - | - | - |
| 1778089236 | 12.22° C | 93% | 1017.2 hPa | - | - | - | - |
| 1778088936 | 12.22° C | 94% | 1017.1 hPa | - | - | - | - |
| 1778085935 | 12.78° C | 95% | 1015.6 hPa | - | - | - | - |
| 1778085335 | 12.78° C | 95% | 1015.6 hPa | - | - | - | - |
| 1778083534 | 12.78° C | 95% | 1015.6 hPa | - | - | - | - |
| 1778083234 | 12.78° C | 95% | 1015.6 hPa | - | - | - | - |
| 1778082934 | 12.78° C | 95% | 1015.6 hPa | - | - | - | - |
| 1778080233 | 12.22° C | 95% | 1015.2 hPa | - | - | - | - |
| 1778079933 | 12.22° C | 95% | 1015.3 hPa | - | - | - | - |
| 1778079633 | 12.22° C | 95% | 1015.3 hPa | - | - | - | - |
| 1778078433 | 12.78° C | 95% | 1015 hPa | - | - | - | - |
| 1778077532 | 12.78° C | 95% | 1014.9 hPa | - | - | - | - |
| 1778077232 | 12.78° C | 95% | 1015.1 hPa | - | - | - | - |
| 1778076932 | 12.78° C | 95% | 1014.8 hPa | - | - | - | - |
| 1778074531 | 11.67° C | 95% | 1014.3 hPa | - | - | - | - |
* Rain since midnight (hover to see other rain measurements)
** Current wind speed in m/s (hover to see current wind gust speed)